Dewpoint
51 52 52 52 53 53 53 54 53 53 54 55 54 53 53 52 52 44 43 48 50 54 55 36 35 34 36 35 36 36 25 31 31 30 30 32 34 32 35 36 48 50 51 53 60
51 51 51 52 52 53 53 53 53 54 54 55 54 53 51 51 44 39 51 52 53 56 42 33 34 34 30 31 32 32 33 32 32 33 31 32 30 30 33 44 44 46 47 49 52
51 51 51 52 52 52 52 53 54 54 54 55 54 53 52 48 39 38 54 51 55 52 44 35 35 35 29 28 27 29 28 25 25 29 30 33 28 28 31 42 43 44 44 45 49
51 51 51 51 52 52 52 52 53 53 53 54 56 55 51 43 17 40 54 54 55 46 40 34 33 28 26 23 26 22 23 23 27 27 27 30 31 29 42 42 42 42 42 43 45
49 51 51 51 52 52 52 53 52 53 53 54 55 54 44 34 36 40 51 49 45 43 40 36 33 28 24 25 25 24 25 26 27 25 26 31 30 29 38 41 40 40 40 40 42
49 50 51 51 52 51 52 52 51 51 52 54 54 53 37 32 39 40 42 43 42 40 39 39 36 36 29 28 25 26 26 26 27 26 30 29 30 30 29 39 40 40 40 40 40
49 49 51 51 52 51 52 52 50 50 51 51 53 38 35 35 38 40 41 42 42 40 39 38 39 34 33 30 30 27 24 26 27 27 27 29 29 27 29 32 32 37 38 38 38
49 49 51 51 51 51 51 51 51 51 51 51 51 37 32 39 38 39 41 42 43 42 40 39 38 36 33 35 32 27 26 24 26 27 27 27 27 28 29 29 30 32 35 35 36
50 50 51 51 51 51 50 50 51 51 51 52 37 33 29 43 38 39 41 40 42 41 40 37 38 33 33 31 27 27 22 22 26 27 28 27 27 28 29 28 28 28 29 31 33
51 51 50 51 51 52 51 47 49 47 42 39 34 28 33 33 38 38 40 41 40 39 38 36 33 30 30 27 22 24 24 24 24 26 26 26 26 27 28 27 27 28 29 29 30
50 50 50 51 50 51 48 40 38 27 35 33 33 32 34 36 40 36 38 40 40 35 30 32 29 27 28 29 29 27 26 25 25 27 26 25 25 26 27 27 27 28 29 29 30
50 49 49 49 49 51 46 40 41 33 21 30 34 34 35 37 32 33 40 35 34 30 33 29 27 29 30 30 30 28 27 26 27 28 27 26 25 26 27 27 27 28 29 29 30
49 50 49 49 48 46 43 43 46 44 22 23 31 31 32 35 33 33 37 36 33 31 31 27 29 31 29 30 29 29 27 27 27 29 28 26 22 26 27 27 28 29 29 29 29
49 49 49 49 39 39 40 45 46 45 24 18 23 29 34 35 31 36 35 36 32 29 31 30 33 32 29 29 30 27 30 28 28 26 22 23 16 24 26 26 27 28 28 28 28
49 48 47 48 37 40 43 45 44 41 13 22 21 30 31 29 30 31 35 34 29 28 29 28 30 30 29 30 31 27 30 29 27 25 24 23 17 21 26 24 26 27 27 27 27
47 47 47 43 42 43 45 44 42 28 9 12 22 25 27 28 29 32 30 31 31 30 28 28 32 31 30 32 32 31 31 28 26 25 14 22 19 18 23 25 26 26 25 26 26
46 46 44 44 40 44 43 40 30 21 20 14 22 25 24 25 26 29 28 26 23 12 16 27 26 30 32 29 30 30 24 9 9 12 13 20 17 18 26 27 27 27 25 24 26
47 45 45 44 44 43 40 33 17 21 20 24 25 22 22 25 25 26 28 25 28 25 16 10 3 25 29 30 28 29 26 11 4 15 15 21 17 18 28 28 29 28 25 25 26
47 43 43 43 43 40 35 25 25 24 21 22 21 20 20 23 24 24 24 26 27 27 10 9 18 27 28 29 29 26 21 27 14 16 17 20 20 26 29 28 28 28 24 24 26
42 42 42 43 41 40 33 29 21 26 22 22 17 18 13 17 20 19 23 27 28 29 30 22 7 26 27 30 30 28 29 18 17 4 6 16 19 21 26 25 26 26 22 25 27
42 37 42 43 40 32 29 26 24 23 27 22 23 16 15 14 18 17 22 27 28 28 31 26 15 19 27 22 24 26 22 25 23 21 11 8 15 25 24 26 27 29 25 27 28
42 34 42 41 29 30 25 27 26 25 31 21 24 22 15 18 17 19 20 24 27 28 25 30 22 11 18 29 27 26 26 25 17 13 17 18 16 28 28 28 29 29 29 29 29
38 39 42 42 31 23 25 24 27 27 27 23 22 23 23 19 14 20 25 26 27 26 26 28 18 3 4 17 27 24 27 27 25 21 13 11 15 29 30 29 30 31 31 32 32
39 33 36 38 37 27 25 24 24 30 28 24 22 24 23 22 22 20 25 27 28 30 32 30 15 8 2 10 23 20 22 27 20 10 15 17 14 20 23 23 27 28 32 33 32
39 34 35 30 31 30 26 25 25 25 29 25 23 22 22 19 20 19 25 28 28 33 29 27 12 11 15 20 20 20 19 20 19 20 13 11 14 23 23 24 24 26 30 32 30
35 34 36 34 31 30 31 25 24 26 27 25 22 23 24 17 16 18 23 25 26 31 28 27 16 16 7 16 19 16 18 18 16 16 21 23 22 26 27 29 27 26 31 31 30
42 40 41 36 31 31 30 27 26 27 28 27 25 23 21 21 23 26 26 27 28 27 26 24 20 8 -0 12 8 5 12 19 21 22 20 16 22 26 28 30 28 29 29 29 29
Lifted_Index
13 13 13 13 12 12 12 12 12 12 11 11 12 12 13 14 14 14 13 13 13 12 13 13 12 11 10 9 9 8 7 7 7 7 7 5 3 2 1 1 -1 -2 -2 -3 -3
13 13 13 13 13 12 12 12 12 12 11 11 12 13 14 14 14 13 13 13 13 12 13 13 12 11 10 9 9 8 8 7 8 7 6 5 3 2 2 1 -0 -1 -2 -3 -3
13 13 13 13 13 13 12 12 12 12 12 11 12 13 14 13 12 12 13 13 13 13 13 13 12 11 9 9 9 9 9 9 9 8 6 4 3 3 2 1 1 -0 -1 -2 -2
14 14 14 13 13 13 12 12 12 12 12 11 12 13 13 12 11 12 14 13 13 13 13 13 12 10 8 9 10 10 10 10 10 9 6 4 4 3 2 2 2 1 -1 -1 -2
14 14 14 13 13 13 12 12 12 12 12 12 12 13 12 11 11 13 14 14 14 14 13 13 11 9 8 9 10 10 11 11 10 9 7 5 4 3 3 3 2 1 -0 -1 -1
14 14 14 13 13 13 12 12 13 13 13 13 13 13 12 11 12 14 14 14 14 14 13 13 11 10 10 10 10 10 10 9 8 7 6 5 4 4 4 4 3 1 0 -1 -1
14 14 14 13 13 13 13 13 13 14 14 14 13 13 12 12 13 14 14 14 14 13 13 12 11 10 10 9 9 9 9 8 7 6 6 5 5 4 4 4 3 2 1 -0 -1
14 14 14 13 13 13 13 13 14 14 14 14 14 13 12 13 14 14 14 14 13 13 12 11 11 10 9 9 9 9 9 8 6 5 5 5 5 4 4 4 4 3 2 1 0
14 14 14 13 13 13 14 14 14 14 14 14 13 12 11 13 14 14 14 13 12 12 11 10 10 10 9 8 7 8 8 8 6 5 5 5 5 4 5 5 5 4 3 2 2
13 14 14 14 13 13 14 14 14 13 13 13 12 11 12 13 14 14 13 12 12 11 11 10 9 8 8 7 7 7 8 8 7 6 5 5 5 4 5 5 5 5 4 4 4
13 13 14 14 14 14 13 13 12 12 12 11 11 11 13 14 14 14 13 12 11 10 9 8 7 7 8 8 8 9 9 9 7 6 6 5 4 4 4 5 5 5 5 5 5
13 13 14 14 14 14 13 12 11 11 10 11 12 12 13 14 13 13 13 12 10 8 8 7 6 7 9 9 9 9 10 9 7 6 6 5 4 4 4 4 5 6 6 6 6
12 13 14 14 14 13 12 12 13 12 10 10 11 12 13 13 12 12 13 12 9 8 7 6 7 8 9 9 8 9 9 8 7 6 5 5 4 3 3 4 5 5 6 6 6
12 13 14 13 12 11 12 13 14 12 8 8 10 12 13 12 11 13 13 12 9 7 6 7 8 8 7 8 8 8 9 8 6 5 5 4 4 3 4 4 4 5 5 6 6
11 12 13 13 12 11 12 14 13 9 6 7 9 11 12 11 11 12 13 12 10 8 7 7 8 8 7 8 9 8 8 8 6 4 4 4 4 4 4 4 4 5 6 6 7
10 11 13 12 12 12 13 13 10 6 5 6 8 9 9 9 10 11 12 11 9 7 7 7 8 8 8 9 9 9 8 6 5 4 3 3 4 4 4 5 5 6 6 7 7
9 10 12 12 12 13 13 9 6 4 5 6 7 7 7 7 8 9 9 8 7 6 6 6 7 8 9 8 8 8 7 4 3 2 2 3 3 4 5 5 6 6 7 7 8
8 9 10 12 13 12 10 6 4 4 5 5 6 6 6 6 6 7 7 7 7 6 5 4 5 7 9 8 8 7 6 4 3 2 2 3 3 4 5 6 6 6 7 8 9
8 7 9 11 13 11 7 4 3 4 5 5 5 5 5 5 5 5 6 6 7 7 6 5 5 7 9 9 8 7 7 6 4 3 2 2 3 3 5 5 6 7 7 8 10
7 6 7 11 12 8 4 3 3 4 5 5 4 4 5 5 5 5 5 7 8 9 8 6 5 6 8 8 8 8 7 6 5 3 2 2 2 3 4 5 6 7 8 9 11
6 6 7 10 9 5 3 3 3 4 5 5 4 4 5 5 5 4 5 7 9 9 9 7 6 5 6 7 7 7 7 6 5 3 2 2 3 3 4 5 6 7 8 9 11
5 5 7 8 6 3 2 3 3 4 4 4 4 4 5 5 4 4 5 7 10 10 9 8 6 4 5 6 7 7 6 6 5 4 3 3 3 4 5 5 6 7 8 9 10
4 5 6 7 4 2 2 2 3 3 4 4 4 5 5 5 4 4 5 8 10 10 10 8 6 4 4 5 7 6 6 6 5 4 3 3 4 5 5 5 6 7 7 8 9
5 4 5 5 4 2 2 2 2 3 3 4 4 4 5 4 4 4 5 8 10 11 11 9 7 4 4 4 5 5 5 6 5 4 3 3 5 6 6 5 6 6 7 8 9
5 4 4 4 3 3 2 2 2 3 3 4 4 4 4 4 4 4 5 6 9 11 10 9 6 5 5 5 5 4 4 5 4 4 4 4 5 6 7 6 6 6 7 7 8
6 5 4 3 3 3 3 2 2 3 3 3 3 4 4 4 4 5 5 6 8 9 9 7 6 5 5 5 5 4 4 4 5 5 5 4 5 6 7 7 7 6 6 6 7
6 6 4 3 3 3 3 2 2 3 3 3 3 4 4 4 4 5 6 7 7 8 7 6 5 4 4 5 4 3 4 4 5 5 5 5 5 6 7 7 7 6 5 6 6